[[{"header":{"parameterUnit":"m.s-1","parameterCategory":1,"la1":30.2991,"la2":30.254,"lo1":-89.0895,"lo2":-89.0444,"dy":0.0017,"dx":0.0017,"nx":28,"ny":28,"refTime":"2024-04-23T21:00:00:Z","depth":0,"parameterNumber":2,"parameterNumberName":"U-component_of_WINDS"},"data":[0,0,0,0,0,0,0,0,0,0,0,0,0,0,0,0,0,0,0,0,0,0,0,0,0,0,0,0,0,0,0,0,0,0,0,0,0,0,0,0,0,0,0,0,0,0,0,0,0,0,0,0,0,0,0,0,0,0,-1.1353,-1.1352,0,-1.1244,-1.1243,-1.1241,-1.1156,-1.1156,-1.1155,-1.1154,-1.1041,-1.1038,-1.1036,0,0,0,0,0,0,0,0,0,0,0,0,0,-1.1488,-1.1486,-1.1353,-1.1352,-1.1351,-1.1244,-1.1242,-1.1241,-1.1156,-1.1155,-1.1155,-1.1154,-1.1041,-1.1039,-1.1036,0,0,0,0,0,0,0,0,0,0,0,0,0,-1.1409,-1.1485,-1.1354,-1.1296,-1.1289,-1.1244,-1.1242,-1.1241,-1.1157,-1.1155,-1.1154,-1.1153,-1.1042,-1.1039,-1.1036,-1.1039,0,0,-1.1025,-1.1024,0,0,0,0,0,0,0,0,-1.1414,-1.1404,-1.1306,-1.13,-1.1292,-1.1212,-1.1248,-1.1173,-1.1157,-1.1207,-1.1154,-1.1153,-1.1099,-1.1091,-1.1073,-1.1034,-1.1029,-1.1025,-1.1023,-1.1021,-1.102,0,0,0,0,0,0,0,-1.1419,-1.1409,-1.131,-1.1304,-1.1296,-1.1275,-1.1262,-1.1234,-1.1161,-1.1203,-1.1196,-1.1184,-1.1095,-1.1076,-1.1069,-1.1027,-1.1025,-1.1022,-1.102,-1.1019,-1.0985,-1.0986,0,0,0,0,0,0,-1.1434,-1.1414,-1.1313,-1.1307,-1.1351,-1.1273,-1.1259,-1.1239,-1.1161,-1.1148,-1.1186,-1.1181,-1.1083,-1.1073,-1.1065,-1.1063,-1.1021,-1.1018,-1.1016,-1.0983,-1.0985,-1.0986,0,0,0,0,0,0,-1.1437,-1.1426,-1.1318,-1.1358,-1.1343,-1.1272,-1.1251,-1.1238,-1.1219,-1.1148,-1.1135,-1.118,-1.1081,-1.107,-1.1046,-1.1058,-1.1017,-1.1014,-1.0982,-1.0984,-1.0985,-1.1061,0,0,0,0,0,0,-1.1442,-1.1428,-1.1429,-1.1359,-1.1341,-1.1301,-1.1251,-1.1237,-1.1214,-1.1206,-1.1139,-1.1127,-1.1079,-1.1052,-1.1043,-1.1053,-1.1011,-1.0981,-1.0983,-1.0985,-1.1057,-1.1065,-1.1072,0,0,0,0,0,-1.1447,-1.1454,-1.1429,-1.1417,-1.1341,-1.1302,-1.1292,-1.1237,-1.1215,-1.1215,-1.1169,-1.1129,-1.1059,-1.105,-1.1039,-1.1049,-1.098,-1.0982,-1.0985,-1.1053,-1.1063,-1.1071,0,0,0,0,0,0,-1.1526,-1.1444,-1.1415,-1.14,-1.1359,-1.1288,-1.1286,-1.1249,-1.1213,-1.1208,-1.1141,-1.1127,-1.111,-1.1077,-1.1069,-1.1047,-1.1014,-1.1014,-1.107,-1.1078,-1.1086,-1.1094,-1.1008,0,0,0,0,0,-1.1542,-1.1518,-1.1447,-1.1441,-1.1422,-1.1358,-1.1339,-1.1301,-1.1255,-1.1237,-1.1189,-1.1146,-1.1114,-1.1094,-1.1061,-1.1052,-1.1035,-1.1053,-1.106,-1.1067,-1.1068,-1.106,-1.1067,-1.0994,-1.0994,-1.0994,0,0,-1.1575,-1.1527,-1.1516,-1.1456,-1.1419,-1.1395,-1.1344,-1.1321,-1.1302,-1.1233,-1.1208,-1.1172,-1.1119,-1.1102,-1.1093,-1.1074,-1.1084,-1.107,-1.1076,-1.1073,-1.1063,-1.107,-1.1076,-1.0996,-1.0996,-1.0996,0,0,-1.1622,-1.1583,-1.1574,-1.1538,-1.1483,-1.1441,-1.1439,-1.1373,-1.1347,-1.132,-1.1268,-1.1245,-1.1191,-1.1155,-1.113,-1.1164,-1.1125,-1.1155,-1.1194,-1.1187,-1.1192,-1.1197,-1.1209,-1.1214,-1.1156,-1.1157,-1.1157,0,-1.1669,-1.1631,-1.1573,-1.1553,-1.1528,-1.1465,-1.1455,-1.1423,-1.136,-1.1344,-1.1324,-1.1255,-1.1215,-1.1189,-1.1198,-1.118,-1.1175,-1.1162,-1.1196,-1.12,-1.1204,-1.1214,-1.1219,-1.116,-1.116,-1.116,-1.1159,0,-1.1692,-1.1667,-1.1665,-1.1607,-1.1581,-1.1567,-1.1506,-1.1487,-1.1451,-1.1411,-1.1384,-1.1334,-1.1289,-1.128,-1.1245,-1.1249,-1.1239,-1.1209,-1.1174,-1.1216,-1.1224,-1.1228,-1.1166,-1.1165,-1.1164,-1.1163,0,0,-1.1787,-1.1696,-1.1696,-1.1669,-1.1604,-1.1583,-1.1564,-1.1521,-1.1506,-1.1465,-1.1448,-1.1404,-1.1375,-1.1347,-1.1307,-1.1301,-1.133,-1.127,-1.1268,-1.1283,-1.1332,-1.1355,-1.1361,-1.1304,-1.1305,-1.1305,-1.1336,0,-1.1823,-1.1788,-1.1735,-1.1716,-1.1692,-1.1631,-1.1615,-1.1573,-1.1535,-1.1508,-1.1466,-1.1436,-1.14,-1.1383,-1.1374,-1.1329,-1.1339,-1.1326,-1.1287,-1.1287,-1.1302,-1.1365,-1.139,-1.1422,-1.1339,-1.134,-1.134,0,-1.1862,-1.1824,-1.1803,-1.174,-1.1727,-1.1714,-1.167,-1.1645,-1.1596,-1.1569,-1.1538,-1.1494,-1.1471,-1.144,-1.1407,-1.1399,-1.138,-1.1355,-1.1355,-1.135,-1.1316,-1.1361,-1.1431,-1.1436,-1.1345,-1.1345,-1.1344,0,-1.1933,-1.1877,-1.1857,-1.1835,-1.1761,-1.1753,-1.1721,-1.1671,-1.1648,-1.1609,-1.1594,-1.1553,-1.1531,-1.15,-1.1446,-1.1428,-1.1419,-1.1383,-1.1395,-1.1397,-1.1396,-1.1397,-1.1463,-1.1384,-1.1384,-1.1384,-1.1384,0,-1.1979,-1.1969,-1.1888,-1.1876,-1.1862,-1.1801,-1.1789,-1.1752,-1.1708,-1.1687,-1.1632,-1.1614,-1.1544,-1.1517,-1.1475,-1.1454,-1.1445,-1.1421,-1.141,-1.1426,-1.1429,-1.1413,-1.141,-1.1385,-1.1385,-1.1385,-1.1385,0,-1.2056,-1.2002,-1.1976,-1.1907,-1.189,-1.1883,-1.1824,-1.181,-1.1768,-1.1743,-1.1733,-1.1668,-1.1633,-1.1577,-1.1526,-1.1497,-1.1485,-1.1466,-1.1501,-1.1495,-1.151,-1.1509,-1.1568,-1.1573,-1.1492,-1.1492,-1.1493,0,-1.209,-1.2081,-1.2011,-1.1993,-1.1964,-1.1936,-1.1912,-1.1852,-1.1829,-1.1773,-1.1765,-1.1727,-1.1693,-1.1641,-1.1589,-1.1549,-1.1529,-1.1552,-1.1523,-1.1539,-1.1529,-1.1531,-1.1529,-1.1559,-1.1561,-1.1562,-1.1562,0,-1.2155,-1.2128,-1.2097,-1.2055,-1.2029,-1.1993,-1.1955,-1.1944,-1.1874,-1.1852,-1.1816,-1.179,-1.1738,-1.17,-1.1654,-1.1621,-1.158,-1.1572,-1.1573,-1.1589,-1.161,-1.1599,-1.152,-1.1571,-1.157,-1.1569,-1.1569,-1.1569,-1.2211,-1.22,-1.2149,-1.2115,-1.208,-1.2046,-1.2029,-1.1985,-1.1954,-1.1908,-1.1873,-1.184,-1.1791,-1.1724,-1.1693,-1.1666,-1.1648,-1.1649,-1.1649,-1.165,-1.1657,-1.1615,-1.1657,-1.1657,-1.1657,-1.1656,-1.1656,0,-1.2273,-1.2238,-1.2207,-1.2155,-1.2129,-1.2093,-1.2049,-1.2029,-1.2,-1.1958,-1.1926,-1.1885,-1.1848,-1.1793,-1.1751,-1.174,-1.1721,-1.1731,-1.1732,-1.1725,-1.1675,-1.1679,-1.1748,-1.1748,-1.1748,-1.1748,-1.1748,-1.1748,-1.2303,-1.2282,-1.2249,-1.221,-1.2174,-1.2141,-1.2119,-1.2086,-1.2052,-1.2009,-1.1978,-1.1942,-1.1895,-1.1849,-1.1814,-1.1798,-1.1786,-1.1803,-1.1782,-1.1737,-1.1728,-1.172,-1.1723,-1.1801,-1.1801,-1.1833,-1.1834,-1.1834]},{"header":{"parameterUnit":"m.s-1","parameterCategory":1,"la1":30.2991,"la2":30.254,"lo1":-89.0895,"lo2":-89.0444,"dy":0.0017,"dx":0.0017,"nx":28,"ny":28,"refTime":"2024-04-23T21:00:00:Z","depth":0,"parameterNumber":3,"parameterNumberName":"V-component_of_WINDS"},"data":[0,0,0,0,0,0,0,0,0,0,0,0,0,0,0,0,0,0,0,0,0,0,0,0,0,0,0,0,0,0,0,0,0,0,0,0,0,0,0,0,0,0,0,0,0,0,0,0,0,0,0,0,0,0,0,0,0,0,3.3579,3.3579,0,3.3597,3.3597,3.3597,3.357,3.3569,3.3568,3.3567,3.3584,3.3585,3.3586,0,0,0,0,0,0,0,0,0,0,0,0,0,3.3517,3.3519,3.3579,3.3579,3.3579,3.3597,3.3597,3.3597,3.357,3.3569,3.3568,3.3567,3.3583,3.3585,3.3587,0,0,0,0,0,0,0,0,0,0,0,0,0,3.3541,3.3519,3.3578,3.3568,3.3567,3.3597,3.3597,3.3598,3.3571,3.3569,3.3568,3.3566,3.3583,3.3585,3.3587,3.3627,0,0,3.3593,3.3594,0,0,0,0,0,0,0,0,3.3539,3.3543,3.3569,3.3568,3.3568,3.358,3.3582,3.3607,3.3571,3.3569,3.3567,3.3566,3.3584,3.3585,3.3592,3.3628,3.3629,3.3593,3.3594,3.3595,3.3596,0,0,0,0,0,0,0,3.3538,3.3542,3.3586,3.3569,3.3569,3.3561,3.3563,3.3586,3.3584,3.3569,3.3567,3.357,3.3583,3.359,3.3592,3.3629,3.3593,3.3595,3.3596,3.3597,3.37,3.3701,0,0,0,0,0,0,3.3538,3.3541,3.3585,3.3586,3.355,3.3563,3.3565,3.3577,3.3584,3.3583,3.3571,3.3569,3.3587,3.359,3.3593,3.3641,3.3595,3.3597,3.3598,3.3698,3.37,3.3702,0,0,0,0,0,0,3.3537,3.3542,3.3584,3.3563,3.3568,3.3566,3.358,3.3578,3.3586,3.3585,3.3584,3.3579,3.3586,3.359,3.3619,3.3641,3.3598,3.36,3.3696,3.3699,3.3701,3.3737,0,0,0,0,0,0,3.3535,3.3542,3.3558,3.3564,3.3569,3.3612,3.3581,3.358,3.3589,3.3586,3.3592,3.3592,3.3585,3.3616,3.3621,3.3643,3.3601,3.3694,3.3698,3.37,3.3734,3.374,3.3746,0,0,0,0,0,3.3533,3.3567,3.3559,3.3564,3.3589,3.3613,3.3616,3.3608,3.3591,3.3607,3.3607,3.3592,3.3638,3.362,3.3625,3.3647,3.3693,3.3697,3.37,3.3731,3.3739,3.3746,0,0,0,0,0,0,3.3562,3.3567,3.3558,3.3595,3.3604,3.3608,3.3628,3.3617,3.363,3.3626,3.3616,3.3617,3.3649,3.3651,3.3631,3.3687,3.3662,3.3667,3.3684,3.3692,3.3698,3.3696,3.3603,0,0,0,0,0,3.3573,3.3593,3.3596,3.3628,3.3633,3.363,3.364,3.3633,3.3641,3.3645,3.3646,3.3654,3.367,3.3681,3.3696,3.3734,3.3735,3.3752,3.3758,3.3763,3.3767,3.3787,3.3795,3.3713,3.3713,3.3713,0,0,3.3596,3.3601,3.3614,3.3634,3.364,3.366,3.3633,3.3655,3.3669,3.3648,3.3676,3.3677,3.3685,3.372,3.3735,3.3722,3.379,3.3767,3.3771,3.3773,3.3792,3.3799,3.3806,3.3716,3.3715,3.3715,0,0,3.3647,3.3653,3.368,3.3687,3.3697,3.3695,3.3701,3.3707,3.3708,3.3736,3.372,3.3737,3.3765,3.3772,3.3778,3.3833,3.3819,3.3838,3.3868,3.3888,3.3895,3.39,3.3919,3.3926,3.3842,3.3842,3.3842,0,3.3673,3.3703,3.3695,3.3719,3.3728,3.3711,3.3738,3.3745,3.3758,3.3765,3.3751,3.3786,3.379,3.3826,3.3839,3.3845,3.3852,3.3837,3.3895,3.39,3.3905,3.3923,3.3931,3.3844,3.3844,3.3843,3.3843,0,3.3735,3.3756,3.3777,3.3792,3.3803,3.3829,3.3824,3.3837,3.3829,3.3828,3.3857,3.3862,3.3877,3.3885,3.3878,3.3919,3.3912,3.3896,3.3872,3.3915,3.3932,3.3939,3.3847,3.3846,3.3846,3.3845,0,0,3.3804,3.3815,3.3823,3.383,3.3839,3.3855,3.3879,3.3896,3.3906,3.3916,3.3936,3.3961,3.3947,3.3955,3.3948,3.3966,3.4008,3.3948,3.3948,3.3959,3.4054,3.4065,3.4073,3.3999,3.4001,3.4002,3.4053,0,3.3855,3.3898,3.3892,3.3933,3.3953,3.3936,3.3957,3.3965,3.3965,3.3981,3.398,3.3998,3.3978,3.3983,3.4,3.3999,3.4027,3.3996,3.4017,3.4018,3.4016,3.4082,3.4094,3.4142,3.406,3.4061,3.4062,0,3.392,3.3934,3.3977,3.3984,3.3992,3.4011,3.4026,3.4041,3.4049,3.4048,3.4057,3.4047,3.4071,3.4046,3.4078,3.4057,3.4066,3.4067,3.4069,3.407,3.4042,3.4085,3.4158,3.4165,3.4072,3.4071,3.407,0,3.3967,3.3996,3.4025,3.4031,3.404,3.4054,3.4058,3.4066,3.4076,3.4088,3.4094,3.4109,3.4117,3.4128,3.4122,3.4105,3.4155,3.413,3.4154,3.4155,3.4166,3.4165,3.424,3.4171,3.4171,3.4171,3.4171,0,3.4024,3.4051,3.4046,3.4065,3.4094,3.4087,3.4116,3.4118,3.4125,3.4143,3.4129,3.4146,3.4137,3.4153,3.4149,3.4176,3.418,3.4179,3.4177,3.418,3.418,3.4185,3.4182,3.4173,3.4173,3.4172,3.4172,0,3.408,3.4079,3.411,3.4116,3.4118,3.414,3.4145,3.4162,3.4161,3.4183,3.4188,3.4186,3.4205,3.42,3.422,3.4217,3.4251,3.4245,3.4249,3.4247,3.4272,3.4269,3.4353,3.4363,3.4288,3.4289,3.4289,0,3.4117,3.4138,3.4147,3.4158,3.4164,3.4182,3.4193,3.4186,3.4197,3.4209,3.4224,3.4241,3.4255,3.4285,3.4285,3.43,3.4294,3.4322,3.4296,3.4298,3.4294,3.4293,3.4295,3.4327,3.4328,3.4329,3.4329,0,3.4182,3.4181,3.4197,3.4213,3.4226,3.4238,3.4249,3.4259,3.4253,3.4266,3.4285,3.4296,3.4316,3.4333,3.4347,3.4351,3.4339,3.4338,3.4344,3.4347,3.4348,3.4348,3.4263,3.4336,3.4335,3.4335,3.4334,3.4334,3.423,3.4248,3.4257,3.4275,3.4283,3.4293,3.4309,3.4311,3.4327,3.4344,3.4339,3.436,3.4368,3.4386,3.4391,3.4407,3.4396,3.4406,3.4408,3.441,3.4413,3.4346,3.441,3.4409,3.4409,3.4409,3.4409,0,3.4294,3.43,3.4317,3.4333,3.4347,3.4336,3.4347,3.436,3.4379,3.4388,3.4402,3.4424,3.444,3.4442,3.4458,3.447,3.4465,3.4475,3.4473,3.4474,3.4422,3.4415,3.4478,3.4478,3.4478,3.4478,3.4478,3.4478,3.433,3.4359,3.4358,3.4391,3.4396,3.4418,3.4425,3.4434,3.4441,3.4467,3.4481,3.4482,3.4488,3.4504,3.4518,3.4518,3.4525,3.4536,3.4534,3.4485,3.4478,3.4471,3.4465,3.4537,3.4537,3.4585,3.4585,3.4585]}]]